Terminal Aerodrome Forecast
Issued by NWS

Home | Current Version | Previous Version | Text Only | Print | Product List | Glossary On
Versions: 1 2 3 4 5 6 7 8 9 10 11 12 13 14 15 16 17 18 19 20 21 22 23
000
FTUS45 KREV 280500
TAFCXP
TAF
KCXP 280523Z 2806/2906 VRB04KT P6SM FEW200
     FM281600 20009G17KT P6SM FEW200
     FM282000 21019G32KT P6SM FEW120 SCT200
     FM290300 23012G24KT P6SM SCT120 BKN200=

USA.gov is the U.S. government's official web portal to all federal, state and local government web resources and services.